Zurück zum Katalog

SL-12 R/B(2)

AktivGEO
NORAD 23429·ROCKET BODY·🇷🇺 Russia

Gestartet Dec 16, 1994 von Baikonur Cosmodrome

Loading…

TLE

AktuellSource: Space-Track

Epoche: Aug 29, 2026, 19:26 UTC

1 23429U 94082D   26241.81012303  .00000114  00000-0  00000+0 0  9991
2 23429  14.5654 353.4866 0027336 144.0471 161.3702  1.00795538116639

Verfolge SL-12 R/B(2) in Echtzeit mit AllMySat

Download on the App Store